Terminal Aerodrome Forecast
Issued by NWS Omaha/Valley, NE

Home | Current Version | Previous Version | Text Only | Print | Product List | Glossary Off
Versions: 1 2 3 4 5 6 7 8 9 10 11 12 13 14 15 16 17 18 19 20 21 22 23 24 25 26 27 28 29 30 31 32 33 34 35 36 37 38 39 40 41

855
FTUS43 KOAX 170530
TAFOFK
TAF
KOFK 170530Z 1706/1806 16011KT P6SM SCT250
     FM171000 19011KT P6SM OVC008
      TEMPO 1712/1715 2SM BR OVC003
     FM171600 24009KT P6SM OVC015
     FM171800 27009KT P6SM BKN110
     FM172300 34008KT P6SM BKN110=

USA.gov is the U.S. government's official web portal to all federal, state and local government web resources and services.